Location: Brentwood
(37.9320°N, 121.6950°W)
Time: 20:24:27
(UTC-08:00)

Hubble Space Telescope - Visible Passes

Search period start: 19 January 2019 00:00
Search period end: 29 January 2019 00:00
Orbit: 537 x 540 km, 28.5° (Epoch: 19 January)

Date Brightness Start Highest point End Pass type
(mag) Time Alt. Az. Time Alt. Az. Time Alt. Az.
19 Jan 2.8 05:38:48 15° SSW 05:40:39 20° S 05:43:44 10° SE visible
20 Jan 2.6 05:29:03 19° SSW 05:30:06 21° S 05:33:16 10° SE visible
21 Jan 2.5 05:19:15 22° S 05:19:34 22° S 05:22:47 10° SE visible
22 Jan 2.7 05:09:26 21° S 05:09:26 21° S 05:12:14 10° SE visible
22 Jan 3.1 06:47:09 10° SW 06:49:37 15° SSW 06:52:04 10° SSE visible
23 Jan 2.9 04:59:35 19° SSE 04:59:35 19° SSE 05:01:39 10° SE visible
23 Jan 3.2 06:37:00 10° SW 06:39:03 13° SSW 06:41:05 10° SSE visible
24 Jan 3.2 04:49:45 16° SSE 04:49:45 16° SSE 04:51:02 10° SE visible
24 Jan 3.2 06:27:06 10° SW 06:28:28 11° SSW 06:29:49 10° S visible
25 Jan 3.6 04:39:55 12° SSE 04:39:55 12° SSE 04:40:22 10° SE visible
